"TOA5","AWS1","CR1000","7964","CR1000.Std.14","CPU:AWS1_114.CR1","64363","TBL110"
"TIMESTAMP","RECORD","Wind_spd_WVc(1)","Wind_spd_WVc(2)","Air_Temp_Avg","Humidity_Avg","SW_upper_Wm2_Avg","Rain_Tot","Press_Avg","Issui_Tot","Depth_cm","SR50A_Raw","Quality","Ground_Temp_Avg(1)","Ground_Temp_Avg(2)","SW_lower_Wm2_Avg","Albedo_Avg","SWC_per(1)","SWC_per(2)","Period(1)","Period(2)"
"TS","RN","","","","","","","","","","","","","","","","","","",""
"","","WVc","WVc","Avg","Avg","Avg","Tot","Avg","Tot","Smp","Smp","Smp","Avg","Avg","Avg","Avg","Smp","Smp","Smp","Smp"
"2018-06-11 00:00:00",344509,0.406,243.6,14.93,100,0,0,858.057,0,16.32,2.937,298,17.18,16.19,0.2122143,0,49.9,57.22,33.27,35.03
"2018-06-11 00:10:00",344510,0.254,236.9,15.09,100,0,0,857.9721,0,18.07,2.92,280,17.14,16.19,0.5181111,0,49.9,57.22,33.27,35.03
"2018-06-11 00:20:00",344511,0.207,316.1,14.92,100,0,0,857.8065,0,17.74,2.925,278,17.15,16.19,0.2766365,0,49.9,57.22,33.27,35.03
"2018-06-11 00:30:00",344512,0.086,307.1,14.72,100,0,0,857.8022,0,17.59,2.926,252,17.11,16.18,0.231162,0,49.9,57.22,33.27,35.03
"2018-06-11 00:40:00",344513,0.209,134.7,14.62,100,0,0,857.6484,0,18.19,2.921,240,17.1,16.17,0.1553712,0,49.84,57.22,33.26,35.03
"2018-06-11 00:50:00",344514,0.615,134.5,14.53,100,0,0,857.3177,0,18.96,2.914,240,17.1,16.17,0.2766365,0,49.9,57.22,33.27,35.03
"2018-06-11 01:00:00",344515,0.422,330.6,14.66,100,0,0,857.2968,0,19.22,2.911,252,17.09,16.17,0.4926403,0,49.84,57.22,33.26,35.03
"2018-06-11 01:10:00",344516,0.07,5.628,14.56,100,0,0,857.2293,0,19.37,2.91,262,17.05,16.18,0.3296901,0,49.9,57.16,33.27,35.02
"2018-06-11 01:20:00",344517,0.033,311,14.59,100,0,0,856.9871,0,20.5,2.899,252,17.05,16.19,0.3903227,0,49.9,57.22,33.27,35.03
"2018-06-11 01:30:00",344518,0.039,288.3,14.46,100,0,0,856.7975,0,20.62,2.898,254,17.02,16.21,0.2614783,0,49.9,57.22,33.27,35.03
"2018-06-11 01:40:00",344519,0.077,271.1,14.5,100,0,0,856.6711,0,19.92,2.905,313,17.01,16.22,0.4585344,0,49.9,57.22,33.27,35.03
"2018-06-11 01:50:00",344520,0.037,108.6,14.47,100,0,0,856.5595,0,17.03,2.933,300,16.96,16.23,0.4547449,0,49.9,57.16,33.27,35.02
"2018-06-11 02:00:00",344521,0.082,185,14.43,100,0,0,856.5237,0,15.15,2.952,235,16.96,16.23,0.4471658,0,49.9,57.16,33.27,35.02
"2018-06-11 02:10:00",344522,0.034,185.6,14.39,100,0,0,856.33,0,22.95,2.876,265,17,16.22,0.4547449,0,49.84,57.16,33.26,35.02
"2018-06-11 02:20:00",344523,0.122,224.9,14.29,100,0,0,856.2858,0,21.82,2.887,439,16.94,16.18,0.4168495,0,49.84,57.16,33.26,35.02
"2018-06-11 02:30:00",344524,0.116,177.4,14.28,100,0,0,856.1235,0,-18.71,3.283,196,16.93,16.16,0.4585344,0,49.84,57.16,33.26,35.02
"2018-06-11 02:40:00",344525,0.01,64.83,14.31,100,0,0,856.0751,0,15.64,2.947,218,16.91,16.16,0.5494834,0,49.84,57.16,33.26,35.02
"2018-06-11 02:50:00",344526,0,0,14.28,100,0,0,855.9571,0,16.16,2.943,226,16.9,16.14,0.6669592,0,49.84,57.16,33.26,35.02
"2018-06-11 03:00:00",344527,0,0,14.19,100,0,0,855.797,0,16.11,2.944,213,16.92,16.13,0.4547449,0,49.84,57.16,33.26,35.02
"2018-06-11 03:10:00",344528,0,0,14.16,100,0,0,855.7844,0,16.06,2.944,217,16.87,16.11,0.5494834,0,49.84,57.16,33.26,35.02
"2018-06-11 03:20:00",344529,0,0,14.06,100,0,0,855.7654,0,17.03,2.935,225,16.84,16.08,0.4547449,0,49.9,57.16,33.27,35.02
"2018-06-11 03:30:00",344530,0,0,14.16,100,0,0,855.5274,0,16.37,2.941,227,16.85,16.06,0.6176952,0,49.9,57.16,33.27,35.02
"2018-06-11 03:40:00",344531,0,0,14.09,100,0,0,855.5274,0,16.46,2.941,212,16.87,16.07,0.5077985,0,49.84,57.16,33.26,35.02
"2018-06-11 03:50:00",344532,0,0,14.02,100,0,0,855.5148,0,19.84,2.908,275,16.88,16.06,0.4812717,0,49.9,57.16,33.27,35.02
"2018-06-11 04:00:00",344533,0,0,13.99,100,0,0,855.4979,0,17.28,2.933,222,16.81,16.06,0.4547449,0,49.9,57.16,33.27,35.02
"2018-06-11 04:10:00",344534,0,0,13.86,100,0,0,855.281,0,17.53,2.931,226,16.75,16.06,0.4547449,0,49.84,57.1,33.26,35.01
"2018-06-11 04:20:00",344535,0,0,13.9,100,0,0,855.2726,0,17.55,2.931,220,16.75,16.08,0.4736926,0,49.84,57.16,33.26,35.02
"2018-06-11 04:30:00",344536,0,0,13.84,100,0.0235817,0,855.2747,0,16.65,2.94,214,16.75,16.1,0.553273,0.257,49.9,57.1,33.27,35.01
"2018-06-11 04:40:00",344537,0,0,13.9,100,1.175155,0,855.2704,0,16.66,2.939,214,16.7,16.11,0.784435,1.027,49.84,57.16,33.26,35.02
"2018-06-11 04:50:00",344538,0,0,13.97,100,5.447373,0,855.1568,0,17.18,2.934,235,16.74,16.1,1.591607,0.318,49.84,57.1,33.26,35.01
"2018-06-11 05:00:00",344539,0,0,14,100,17.54086,0,855.0367,0,16.38,2.942,213,16.7,16.1,3.505325,0.202,49.84,57.1,33.26,35.01
"2018-06-11 05:10:00",344540,0,0,13.99,100,21.41218,0,855.0009,0,24.15,2.866,460,16.67,16.09,3.842594,0.179,49.9,57.1,33.27,35.01
"2018-06-11 05:20:00",344541,0,0,14.04,100,26.4626,0,855.0219,0,16.31,2.942,214,16.67,16.06,4.388288,0.167,49.84,57.1,33.26,35.01
"2018-06-11 05:30:00",344542,0,0,14.14,100,40.96534,0,854.9145,0,17.09,2.934,233,16.68,16.06,6.298217,0.154,49.84,57.1,33.26,35.01
"2018-06-11 05:40:00",344543,0,0,14.38,100,47.59966,0,854.8029,0,17.6,2.927,240,16.7,16.07,7.313814,0.154,49.84,57.1,33.26,35.01
"2018-06-11 05:50:00",344544,0,0,14.57,100,47.10052,0,854.6996,0,16.88,2.934,234,16.68,16.06,7.071283,0.15,49.9,57.1,33.27,35.01
"2018-06-11 06:00:00",344545,0,0,14.59,100,47.46996,0,854.5165,0,17.43,2.928,221,16.62,16.06,7.052336,0.149,49.9,57.1,33.27,35.01
"2018-06-11 06:10:00",344546,0,0,14.65,100,52.82301,0,854.5165,0,17.22,2.93,226,16.58,16.06,7.969405,0.151,49.84,57.1,33.26,35.01
"2018-06-11 06:20:00",344547,0,0,14.68,100,62.82558,0,854.5165,0,17.43,2.928,241,16.58,16.06,9.295744,0.148,49.84,57.1,33.26,35.01
"2018-06-11 06:30:00",344548,0,0,14.78,100,82.75211,0,854.3838,0,18.15,2.921,237,16.58,16.06,11.78926,0.142,49.9,57.1,33.27,35.01
"2018-06-11 06:40:00",344549,0,0,14.63,100,99.40079,0,854.2637,0,18.38,2.919,246,16.58,16.06,14.14257,0.142,49.84,57.1,33.26,35.01
"2018-06-11 06:50:00",344550,0.13,159,14.75,100,134.6712,0,854.0552,0,18.82,2.914,252,16.56,16.04,19.59571,0.145,49.9,57.1,33.27,35.01
"2018-06-11 07:00:00",344551,0.11,167.7,15.02,100,170.5389,0,853.9099,0,20.75,2.893,298,16.53,16.04,24.8935,0.146,49.9,57.1,33.27,35.01
"2018-06-11 07:10:00",344552,0.088,54.89,15.52,95.7,201.4506,0,853.7751,0,20.59,2.892,296,16.52,16.04,29.9639,0.149,49.84,57.1,33.26,35.01
"2018-06-11 07:20:00",344553,0.163,358.9,15.64,95.7,206.9137,0,853.7582,0,18.12,2.916,242,16.55,16.01,30.66117,0.148,49.9,57.1,33.27,35.01
"2018-06-11 07:30:00",344554,0.372,31.38,15.6,96.4,197.3435,0,853.7519,0,-9.96,3.189,199,16.52,16.01,28.77777,0.146,49.84,57.1,33.26,35.01
"2018-06-11 07:40:00",344555,0.143,131,15.72,98.1,195.1032,0,853.6634,0,16.68,2.93,229,16.51,16.01,27.95923,0.143,49.9,57.1,33.27,35.01
"2018-06-11 07:50:00",344556,0.067,252,15.78,96.2,195.1346,0,853.4991,0,15.79,2.938,230,16.51,15.98,26.37521,0.135,49.84,57.1,33.26,35.01
"2018-06-11 08:00:00",344557,0.076,81.3,15.66,96.6,186.7474,0,853.4086,0,16,2.937,224,16.55,15.97,26.36384,0.141,49.84,57.04,33.26,34.99
"2018-06-11 08:10:00",344558,0.369,332.5,15.7,96.8,208.195,0,853.3117,0,16.83,2.929,292,16.58,15.97,30.78623,0.148,49.84,57.1,33.26,35.01
"2018-06-11 08:20:00",344559,0.204,337.8,15.9,93.7,246.7353,0,853.2527,0,16.23,2.933,259,16.58,15.97,37.1754,0.15,49.84,57.04,33.26,34.99
"2018-06-11 08:30:00",344560,0.29,12,16.22,95.9,331.2482,0,853.3222,0,-17.4,3.258,185,16.55,15.95,51.01859,0.154,49.84,57.04,33.26,34.99
"2018-06-11 08:40:00",344561,0.312,357.3,16.26,95,252.3242,0,853.3475,0,23.33,2.863,480,16.5,15.96,38.34258,0.152,49.84,57.1,33.26,35.01
"2018-06-11 08:50:00",344562,0.225,11.92,16.23,95.7,366.4243,0,853.2527,0,-20.96,3.292,179,16.5,15.96,57.11975,0.156,49.84,57.04,33.26,34.99
"2018-06-11 09:00:00",344563,0.227,6.082,16.58,92.8,312.6894,0,853.2527,0,-19.25,3.274,191,16.53,15.93,47.47158,0.152,49.84,57.04,33.26,34.99
"2018-06-11 09:10:00",344564,0.117,178.5,16.9,91.9,308.9832,0,853.2464,0,15.58,2.933,221,16.58,15.94,46.25893,0.15,49.84,57.04,33.26,34.99
"2018-06-11 09:20:00",344565,0.058,222.8,17.51,84,391.4405,0,853.1553,0,-15.63,3.233,171,16.63,15.93,60.9055,0.155,49.84,57.04,33.26,34.99
"2018-06-11 09:30:00",344566,0.208,2.997,17.88,82.4,358.5873,0,852.9926,0,15.58,2.931,272,16.59,15.93,54.98245,0.153,49.84,57.1,33.26,35.01
"2018-06-11 09:40:00",344567,0.3,52.28,17.68,85,349.4611,0,852.7739,0,-15.84,3.236,192,16.58,15.93,54.62623,0.156,49.84,57.1,33.26,35.01
"2018-06-11 09:50:00",344568,0.191,317.3,17.7,87.5,321.3478,0,852.731,0,20.65,2.881,268,16.58,15.93,49.17308,0.153,49.84,57.04,33.26,34.99
"2018-06-11 10:00:00",344569,0.478,10.9,17.63,90,329.4914,0,852.7341,0,21.21,2.876,256,16.62,15.94,50.99964,0.155,49.79,57.04,33.24,34.99
"2018-06-11 10:10:00",344570,0.241,341.9,17.68,92,244.9706,0,852.7404,0,-14.17,3.221,198,16.73,15.95,36.53118,0.149,49.84,57.1,33.26,35.01
"2018-06-11 10:20:00",344571,0.394,25.76,17.2,97.1,213.5244,0,852.598,0,25.11,2.842,327,16.71,15.89,31.83593,0.149,49.84,57.04,33.26,34.99
"2018-06-11 10:30:00",344572,0.449,14.06,16.8,99.5,231.4937,0,852.493,0,19.81,2.893,253,16.68,15.81,35.41326,0.153,49.79,57.1,33.24,35.01
"2018-06-11 10:40:00",344573,0.242,350.6,16.93,100,201.0576,0,852.4941,0,21.79,2.874,243,16.72,15.81,29.82748,0.148,49.79,57.1,33.24,35.01
"2018-06-11 10:50:00",344574,0.38,331.5,16.84,99.9,204.0014,0,852.3891,0,22.05,2.873,306,16.81,15.82,30.2178,0.148,49.79,57.04,33.24,34.99
"2018-06-11 11:00:00",344575,0.058,305.4,16.97,100,189.4947,0,852.246,0,24.65,2.845,341,16.82,15.85,28.37987,0.15,49.84,57.04,33.26,34.99
"2018-06-11 11:10:00",344576,0.13,323.2,17.3,99.8,209.4566,0,852.2143,0,23.39,2.857,325,16.76,15.84,31.85109,0.152,49.84,57.1,33.26,35.01
"2018-06-11 11:20:00",344577,0.057,299.4,17.41,100,169.5524,0,852.1196,0,28.71,2.805,409,16.8,15.83,25.25729,0.148,49.79,57.04,33.24,34.99
"2018-06-11 11:30:00",344578,0.287,8.95,17.16,99.9,176.6033,0,851.9953,0,17.42,2.916,317,16.88,15.84,27.30364,0.154,49.79,56.98,33.24,34.98
"2018-06-11 11:40:00",344579,0.44,4.908,17.1,98.8,252.3321,0,851.8268,0,-20.41,3.283,195,16.87,15.85,40.55567,0.161,49.79,57.04,33.24,34.99
"2018-06-11 11:50:00",344580,0.166,356.4,17.21,99.1,281.5419,0,851.7363,0,16.02,2.927,283,16.84,15.84,44.93638,0.16,49.79,57.04,33.24,34.99
"2018-06-11 12:00:00",344581,0.421,6.984,17.57,100,295.4826,0,851.692,0,20.18,2.886,318,16.88,15.8,47.66864,0.161,49.79,57.04,33.24,34.99
"2018-06-11 12:10:00",344582,0.475,352.1,17.69,99.6,302.6279,0,851.5551,0,-21.17,3.286,178,16.97,15.81,48.61981,0.161,49.79,57.04,33.24,34.99
"2018-06-11 12:20:00",344583,0.157,302.1,17.79,99.9,223.8729,0,851.4476,0,-16.38,3.24,184,16.94,15.8,34.79177,0.155,49.79,57.04,33.24,34.99
"2018-06-11 12:30:00",344584,0.233,313.7,17.74,99.3,210.9658,0,851.235,0,23.07,2.858,384,16.93,15.8,33.17364,0.157,49.79,57.04,33.24,34.99
"2018-06-11 12:40:00",344585,0.258,285.2,17.54,100,163.6727,0,851.2307,0,21.31,2.877,363,17.02,15.81,25.89014,0.158,49.79,56.98,33.24,34.98
"2018-06-11 12:50:00",344586,0.197,319.9,17.52,100,178.0222,0,851.1971,0,18.02,2.908,251,17.09,15.82,28.45945,0.16,49.79,56.98,33.24,34.98
"2018-06-11 13:00:00",344587,0.275,237.2,17.49,96.9,210.5649,0,851.1023,0,-19.25,3.27,184,17.03,15.83,33.92776,0.161,49.73,57.04,33.23,34.99
"2018-06-11 13:10:00",344588,0.213,203.2,17.41,90.9,238.5839,0,850.9759,0,19.97,2.89,323,17.02,15.82,38.00909,0.159,49.73,57.04,33.23,34.99
"2018-06-11 13:20:00",344589,0.605,274.4,17.22,86.9,166.2824,0,850.9675,0,17.88,2.912,251,17.02,15.82,25.76888,0.155,49.79,57.04,33.24,34.99
"2018-06-11 13:30:00",344590,0.514,221.9,17.08,86.7,231.4072,0,850.8748,0,15.66,2.932,285,17.13,15.87,36.92908,0.159,49.79,57.04,33.24,34.99
"2018-06-11 13:40:00",344591,0.936,282.3,17.32,82.9,317.9482,0,850.7295,0,-25.33,3.329,197,17.14,15.85,51.1247,0.161,49.73,56.98,33.23,34.98
"2018-06-11 13:50:00",344592,0.563,222.4,17.49,84.2,247.6943,0,850.6326,0,-27.24,3.347,355,17.11,15.83,39.51354,0.16,49.73,57.04,33.23,34.99
"2018-06-11 14:00:00",344593,0.653,217.5,17.43,83.8,258.8013,0,850.5673,0,17.94,2.909,315,17.11,15.81,41.45379,0.16,49.73,57.04,33.23,34.99
"2018-06-11 14:10:00",344594,0.586,285.9,17.67,84.1,230.857,0,850.4725,0,19.43,2.893,412,17.14,15.8,36.18254,0.156,49.73,57.04,33.23,34.99
"2018-06-11 14:20:00",344595,0.437,235,17.65,83.3,186.8378,0,850.4725,0,-26.7,3.341,258,17.22,15.81,28.47461,0.152,49.73,56.98,33.23,34.98
"2018-06-11 14:30:00",344596,0.406,253.7,17.64,84.2,170.5154,0,850.4578,0,-24.19,3.316,227,17.22,15.8,26.04552,0.153,49.73,56.98,33.23,34.98
"2018-06-11 14:40:00",344597,0.481,348.7,17.57,87.2,153.8549,0,850.2492,0,15.75,2.93,280,17.2,15.81,23.25641,0.151,49.73,56.98,33.23,34.98
"2018-06-11 14:50:00",344598,0.235,264.5,17.43,89.6,110.5549,0,850.2197,0,4.339,3.042,234,17.2,15.81,16.01081,0.144,49.68,56.98,33.22,34.98
"2018-06-11 15:00:00",344599,0.372,222.8,17.01,95.7,80.10703,0,850.2197,0,20.56,2.886,370,17.25,15.84,11.85368,0.148,49.73,56.98,33.23,34.98
"2018-06-11 15:10:00",344600,0.38,327.9,16.75,99.8,75.19418,0,850.2197,0,29.62,2.8,281,17.3,15.87,11.36862,0.151,49.73,56.98,33.23,34.98
"2018-06-11 15:20:00",344601,0.288,290.6,16.56,100,65.10121,0,850.2197,0,15.29,2.94,284,17.35,15.88,9.65954,0.149,49.73,56.98,33.23,34.98
"2018-06-11 15:30:00",344602,0.234,298.6,16.36,100,64.26013,0,850.2197,0,-9.68,3.183,181,17.36,15.89,8.966054,0.14,49.68,56.98,33.22,34.98
"2018-06-11 15:40:00",344603,0.151,329.4,16.25,100,41.65707,0,850.2324,0,28.91,2.809,272,17.35,15.89,5.69568,0.137,49.68,56.98,33.22,34.98
"2018-06-11 15:50:00",344604,0.26,226.8,16.13,100,58.75774,0,850.2219,0,28.07,2.818,317,17.35,15.89,8.079302,0.138,49.73,56.98,33.23,34.98
"2018-06-11 16:00:00",344605,0.539,316.6,15.94,100,69.14155,0,850.2177,0,18.91,2.907,244,17.35,15.89,9.568591,0.139,49.68,56.98,33.22,34.98
"2018-06-11 16:10:00",344606,0.47,259,15.94,100,67.92709,0,850.1102,0,-16.48,3.251,176,17.36,15.89,9.356376,0.138,49.68,56.98,33.22,34.98
"2018-06-11 16:20:00",344607,0.357,264.9,15.82,100,42.06976,0,850.0154,0,-15.41,3.242,171,17.36,15.91,5.718417,0.136,49.68,56.98,33.22,34.98
"2018-06-11 16:30:00",344608,0.41,245.6,15.75,100,39.67228,0,850.165,0,16.47,2.932,237,17.36,15.91,5.593362,0.143,49.68,56.98,33.22,34.98
"2018-06-11 16:40:00",344609,0.852,313.7,15.72,100,53.93921,0,850.165,0,20.43,2.894,303,17.36,15.94,7.556345,0.14,49.68,56.98,33.22,34.98
"2018-06-11 16:50:00",344610,0.567,292.6,15.72,100,61.05302,0,850.1102,0,21.1,2.887,270,17.36,15.96,8.488572,0.139,49.68,56.98,33.22,34.98
"2018-06-11 17:00:00",344611,0.439,226.3,15.69,100,47.92194,0,850.1523,0,-16.54,3.254,182,17.36,15.96,6.476326,0.135,49.68,56.93,33.22,34.97
"2018-06-11 17:10:00",344612,0.354,308.8,15.62,100,29.37887,0,850.2177,0,22.53,2.874,250,17.36,15.95,4.255655,0.146,49.68,56.93,33.22,34.97
"2018-06-11 17:20:00",344613,0.549,276.2,15.61,100,37.16083,0,850.2197,0,22.67,2.873,296,17.36,15.98,5.233356,0.141,49.62,56.93,33.2,34.97
"2018-06-11 17:30:00",344614,0.666,274.9,15.51,100,35.60443,0,850.2156,0,21.81,2.881,346,17.36,15.99,4.95293,0.139,49.62,56.93,33.2,34.97
"2018-06-11 17:40:00",344615,0.309,210.2,15.49,100,29.69722,0,850.2239,0,-23.17,3.319,188,17.36,15.99,4.179864,0.141,49.62,56.93,33.2,34.97
"2018-06-11 17:50:00",344616,0.484,281.8,15.43,100,18.28368,0,850.2872,0,-10.4,3.195,169,17.36,15.99,2.72468,0.15,49.62,56.93,33.2,34.97
"2018-06-11 18:00:00",344617,0.397,298.2,15.36,100,31.3558,0,850.2872,0,-24.71,3.335,223,17.36,15.97,4.600502,0.148,49.68,56.93,33.22,34.97
"2018-06-11 18:10:00",344618,0.208,225.9,15.36,100,25.93987,0,850.3209,0,21.18,2.888,306,17.36,15.97,3.702382,0.143,49.68,56.93,33.22,34.97
"2018-06-11 18:20:00",344619,0.19,277.5,15.36,100,16.28316,0,850.4725,0,8.89,3.008,330,17.33,15.97,2.417727,0.148,49.68,56.93,33.22,34.97
"2018-06-11 18:30:00",344620,0.14,290.7,15.34,100,8.74488,0,850.4725,0,24.2,2.859,280,17.28,15.97,1.496869,0.171,49.62,56.93,33.2,34.97
"2018-06-11 18:40:00",344621,0.145,331.5,15.34,100,7.027347,0,850.4725,0,318,0,0,17.28,15.97,1.375603,0.197,49.68,56.93,33.22,34.97
"2018-06-11 18:50:00",344622,0.05,312.4,15.36,100,3.525464,0,850.58,0,318,0,0,17.28,15.97,0.833699,0.256,49.62,56.93,33.2,34.97
"2018-06-11 19:00:00",344623,0.073,269.7,15.36,100,0.9314772,0,850.7253,0,21.36,2.886,243,17.28,15.97,0.4585344,0.576,49.68,56.93,33.22,34.97
"2018-06-11 19:10:00",344624,0,0,15.39,100,0.4952157,0,850.7253,0,27.96,2.822,368,17.28,15.97,0.3903227,0.884,49.62,56.93,33.2,34.97
"2018-06-11 19:20:00",344625,0,0,15.34,100,0.09825709,0,850.7295,0,28.62,2.816,275,17.26,15.97,0.280426,0.53,49.68,56.93,33.22,34.97
"2018-06-11 19:30:00",344626,0,0,15.32,100,0,0,850.8095,0,-26.92,3.356,189,17.22,15.97,0.2993737,0,49.68,56.93,33.22,34.97
"2018-06-11 19:40:00",344627,0,0,15.32,100,0,0,850.9022,0,14.95,2.949,243,17.19,15.98,0.2766365,0,49.62,56.93,33.2,34.97
"2018-06-11 19:50:00",344628,0,0,15.31,100,0,0,850.9717,0,16.04,2.938,245,17.2,15.99,0.2614783,0,49.68,56.93,33.22,34.97
"2018-06-11 20:00:00",344629,0,0,15.34,100,0,0,851.117,0,17.89,2.92,234,17.18,16,0.231162,0,49.68,56.87,33.22,34.95
"2018-06-11 20:10:00",344630,0,0,15.33,100,0,0,850.9001,0,17.17,2.927,228,17.18,16.03,0.2273725,0,49.68,56.87,33.22,34.95
"2018-06-11 20:20:00",344631,0,0,15.35,100,0,0,850.9801,0,-17.06,3.26,173,17.19,16.02,0.2387411,0,49.68,56.87,33.22,34.95
"2018-06-11 20:30:00",344632,0,0,15.27,100,0,0,851.216,0,23.12,2.87,367,17.19,16.04,0.2955842,0,49.73,56.87,33.23,34.95
"2018-06-11 20:40:00",344633,0,0,15.32,100,0,0,851.3087,0,21.02,2.89,275,17.17,16.05,0.2917947,0,49.73,56.93,33.23,34.97
"2018-06-11 20:50:00",344634,0,0,15.35,100,0,0,851.4835,0,19.74,2.902,280,17.13,16.05,0.231162,0,49.73,56.87,33.23,34.95
"2018-06-11 21:00:00",344635,0.057,60.05,15.2,100,0,0,851.4287,0,-25.33,3.342,200,17.14,16.06,0.2273725,0,49.73,56.87,33.23,34.95
"2018-06-11 21:10:00",344636,0,0,15.1,100,0,0,851.2307,0,21.05,2.891,322,17.1,16.06,0.2235829,0,49.79,56.87,33.24,34.95
"2018-06-11 21:20:00",344637,0.034,184.7,15.04,100,0,0,851.2286,0,318,0,0,17.1,16.06,0.2273725,0,49.79,56.87,33.24,34.95
"2018-06-11 21:30:00",344638,0.305,131.3,15.06,100,0,0,851.1086,0,22.28,2.879,298,17.1,16.06,0.2273725,0,49.79,56.93,33.24,34.97
"2018-06-11 21:40:00",344639,0.037,299.5,15.04,100,0,0,851.2181,0,20.23,2.899,286,17.1,16.06,0.3069528,0,49.79,56.87,33.24,34.95
"2018-06-11 21:50:00",344640,0,0,15.05,100,0,0,851.178,0,20.94,2.892,255,17.08,16.06,0.2993737,0,49.79,56.87,33.24,34.95
"2018-06-11 22:00:00",344641,0.228,142.6,14.98,100,0,0,851.0875,0,-18.81,3.279,189,17.05,16.06,0.2652679,0,49.84,56.93,33.26,34.97
"2018-06-11 22:10:00",344642,0.116,132.9,15.01,100,0,0,851.0812,0,8.97,3.009,242,17.03,16.06,0.2273725,0,49.84,56.93,33.26,34.97
"2018-06-11 22:20:00",344643,0,0,15.04,100,0,0,851.2307,0,-25.89,3.348,236,17,16.06,0.3865332,0,49.84,56.93,33.26,34.97
"2018-06-11 22:30:00",344644,0.122,294.7,15.03,100,0,0,851.275,0,-24.51,3.335,184,17.01,16.06,0.4547449,0,49.9,56.93,33.27,34.97
"2018-06-11 22:40:00",344645,0.025,321.5,15.05,100,0,0,851.1865,0,-16.75,3.259,187,17.01,16.06,0.5191671,0,49.84,56.93,33.26,34.97
"2018-06-11 22:50:00",344646,0,0,15.01,100,0,0,851.0917,0,-24.4,3.334,217,16.95,16.06,0.4547449,0,49.9,56.93,33.27,34.97
"2018-06-11 23:00:00",344647,0,0,14.97,100,0,0,850.9969,0,17.7,2.924,333,16.94,16.06,0.4547449,0,49.9,56.93,33.27,34.97
"2018-06-11 23:10:00",344648,0,0,14.98,100,0,0,851.1949,0,318,0,0,16.98,16.06,0.4547449,0,49.9,56.93,33.27,34.97
"2018-06-11 23:20:00",344649,0,0,15.02,100,0,0,851.1886,0,15.93,2.941,247,16.94,16.06,0.2425306,0,49.95,56.93,33.28,34.97
"2018-06-11 23:30:00",344650,0,0,15,100,0,0,850.9885,0,-34.21,3.429,294,16.93,16.06,0.2273725,0,49.9,56.93,33.27,34.97
"2018-06-11 23:40:00",344651,0,0,14.9,100,0,0,851.0075,0,15.69,2.944,346,16.93,16.06,0.2273725,0,49.9,56.93,33.27,34.97
"2018-06-11 23:50:00",344652,0.194,295.5,14.92,100,0,0,851.2202,0,24.5,2.858,252,16.88,16.06,0.2387411,0,49.9,56.93,33.27,34.97
